Gadsden, AL

12:08 AM CST on December 12, 2019 (GMT -0600)
Gadsden Municipal

Weather History for KGAD - June, 2019

Change the Weather History Date:

Sunday, June 9, 2019

  Actual Average Record
Temperature  
Mean Temperature 76 °F -  
Max Temperature 82 °F 81 °F 100 °F (1936)
Min Temperature 71 °F 62 °F 46 °F (1931)
Cooling Degree Days 11    
Growing Degree Days 26 (Base 50)    
Moisture  
Dew Point 76 °F    
Average Humidity 95    
Maximum Humidity 100    
Minimum Humidity 85    
Precipitation  
Precipitation 0.23 in - - ()
Sea Level Pressure  
Sea Level Pressure 29.86 in    
Wind  
Wind Speed 3 mph ()    
Max Wind Speed 9 mph    
Max Gust Speed -    
Visibility 9.4 miles    
Events Rain    
Averages and records for this station are not official NWS values.
T = Trace of Precipitation, MM = Missing Value Source: Averaged Metar Reports

Daily Weather History Graph

Daily Weather History Graph

Search for Another Location

Airport or City:

Astronomy

Jun. 09, 2019 Rise Set
Actual Time 5:32 AM CDT 7:54 PM CDT
Civil Twilight 5:03 AM CDT 8:23 PM CDT
Nautical Twilight 4:28 AM CDT 8:59 PM CDT
Astronomical Twilight 3:49 AM CDT 9:38 PM CDT
Moon 12:01 PM CDT (6/9) 12:42 AM CDT (6/9)
Length of Visible Light 15h 19m
Length of Day
14h 21m
Waxing Crescent, 44% of the Moon is Illuminated
Jun 9
Waxing Crescent
Jun 10
First Quarter
Jun 17
Full
Jun 25
Last Quarter
Jul 2
New

Hourly Weather History & Observations

Time (CDT) Temp. Heat Index Dew Point Humidity Pressure Visibility Wind Dir Wind Speed Gust Speed Precip Events Conditions
12:23 AM 71.6 °F - - N/A% 29.82 in 9.0 mi ESE 4.6 mph - N/A   Scattered Clouds
12:32 AM 71.6 °F - - N/A% 29.82 in 10.0 mi East 5.8 mph - N/A   Mostly Cloudy
12:56 AM 71.1 °F - - N/A% 29.82 in 10.0 mi East 4.6 mph - N/A   Mostly Cloudy
1:07 AM 71.6 °F - - N/A% 29.82 in 10.0 mi NE 4.6 mph - N/A   Scattered Clouds
1:19 AM 71.6 °F - - N/A% 29.82 in 9.0 mi Calm Calm - N/A   Mostly Cloudy
1:35 AM 71.6 °F - - N/A% 29.82 in 9.0 mi NE 3.5 mph - N/A   Mostly Cloudy
1:56 AM 71.1 °F - - N/A% 29.81 in 10.0 mi ENE 4.6 mph - N/A   Overcast
2:20 AM 71.6 °F - - N/A% 29.81 in 10.0 mi Calm Calm - N/A   Overcast
2:56 AM 71.1 °F - - N/A% 29.82 in 10.0 mi East 3.5 mph - N/A   Overcast
3:26 AM 71.6 °F - - N/A% 29.82 in 10.0 mi SE 4.6 mph - N/A   Overcast
3:56 AM 72.0 °F - - N/A% 29.82 in 10.0 mi East 3.5 mph - 0.00 in   Overcast
4:29 AM 71.6 °F - - N/A% 29.83 in 10.0 mi Calm Calm - N/A   Overcast
4:51 AM 71.6 °F - - N/A% 29.83 in 10.0 mi East 4.6 mph - N/A   Overcast
4:56 AM 71.1 °F - - N/A% 29.82 in 10.0 mi East 4.6 mph - N/A   Overcast
5:06 AM 71.6 °F - - N/A% 29.83 in 10.0 mi ESE 4.6 mph - N/A   Overcast
5:34 AM 71.6 °F - - N/A% 29.84 in 10.0 mi East 3.5 mph - N/A   Mostly Cloudy
5:47 AM 71.6 °F - - N/A% 29.85 in 10.0 mi Calm Calm - N/A   Overcast
5:56 AM 71.1 °F - - N/A% 29.85 in 10.0 mi ENE 4.6 mph - N/A   Overcast
6:11 AM 71.6 °F - - N/A% 29.86 in 10.0 mi ENE 3.5 mph - N/A   Overcast
6:27 AM 71.6 °F - - N/A% 29.86 in 10.0 mi NE 3.5 mph - N/A   Overcast
6:56 AM 72.0 °F - - N/A% 29.87 in 10.0 mi Calm Calm - N/A   Overcast
7:56 AM 73.0 °F - - N/A% 29.88 in 10.0 mi Calm Calm - N/A   Overcast
8:34 AM 75.2 °F - 75.2 °F 100% 29.89 in 10.0 mi ESE 4.6 mph - N/A   Overcast
8:56 AM 75.0 °F - 75.0 °F 100% 29.88 in 10.0 mi SE 6.9 mph - N/A   Overcast
9:56 AM 75.9 °F - 75.9 °F 100% 29.89 in 10.0 mi East 5.8 mph - N/A   Overcast
10:56 AM 80.1 °F 85.4 °F 75.9 °F 87% 29.89 in 10.0 mi NE 4.6 mph - N/A   Mostly Cloudy
11:56 AM 79.0 °F - 75.9 °F 90% 29.88 in 10.0 mi NNE 5.8 mph - N/A   Overcast
12:56 PM 81.0 °F 87.3 °F 75.9 °F 85% 29.87 in 10.0 mi NE 9.2 mph - N/A   Overcast
1:15 PM 78.8 °F - 75.2 °F 89% 29.88 in 7.0 mi East 6.9 mph - N/A   Overcast
1:28 PM 75.2 °F - 75.2 °F 100% 29.88 in 2.5 mi East 4.6 mph - 0.16 in Rain Heavy Rain
1:31 PM 75.2 °F - 75.2 °F 100% 29.88 in 3.0 mi East 5.8 mph - 0.17 in Rain Heavy Rain
1:56 PM 77.0 °F - 77.0 °F 100% 29.87 in 10.0 mi ENE 3.5 mph - 0.20 in Rain Light Rain
2:56 PM 81.0 °F 89.2 °F 79.0 °F 94% 29.88 in 10.0 mi East 4.6 mph - 0.02 in   Mostly Cloudy
3:56 PM 79.0 °F - 75.0 °F 88% 29.87 in 10.0 mi SE 5.8 mph - N/A   Mostly Cloudy
4:56 PM 79.0 °F - 75.9 °F 90% 29.87 in 10.0 mi SE 3.5 mph - N/A   Mostly Cloudy
5:56 PM 78.1 °F - 77.0 °F 96% 29.87 in 10.0 mi Calm Calm - N/A   Overcast
6:56 PM 77.0 °F - 77.0 °F 100% 29.90 in 10.0 mi NNW 3.5 mph - N/A   Overcast
7:56 PM 75.9 °F - - N/A% 29.91 in 10.0 mi Calm Calm - N/A   Mostly Cloudy
8:56 PM 73.9 °F - - N/A% 29.91 in 6.0 mi Calm Calm - N/A   Haze
9:04 PM 73.4 °F - - N/A% 29.92 in 10.0 mi WNW 4.6 mph - N/A   Mostly Cloudy
9:29 PM 73.4 °F - - N/A% 29.92 in 10.0 mi NNW 4.6 mph - N/A   Overcast
9:56 PM 73.9 °F - - N/A% 29.92 in 10.0 mi East 5.8 mph - 0.01 in Rain Light Rain
10:28 PM 73.4 °F - - N/A% 29.93 in 10.0 mi North 3.5 mph - 0.00 in   Mostly Cloudy
10:35 PM 73.4 °F - - N/A% 29.92 in 10.0 mi ENE 4.6 mph - 0.00 in   Scattered Clouds
10:56 PM 73.9 °F - - N/A% 29.91 in 10.0 mi Calm Calm - 0.00 in   Clear
11:56 PM 72.0 °F - - N/A% 29.91 in 8.0 mi North 3.5 mph - N/A   Clear